Dewpoint
64 57 52 52 48 39 32 24 1 11 4 -1 -8 -3 -5 0 5 5 -1 13 16 47 48 52 49 40 33 47 48 53 57 53 54 45 52 66 68 68 68 69 68 68 67 67 68 70 71 73 73 72 72 72 72 72 71 71 71 71 71 71 71 71 70 69 69 70 69 69 69 68 68 68 68 68 69 70 71 71 71 70 70 70 71 71 70 71 70 70 70 70 70 70 70 70 70 69 69
41 48 52 49 43 33 24 22 7 4 11 0 -4 -1 -4 4 9 3 7 14 19 22 37 48 50 48 47 52 51 49 55 59 59 61 66 67 68 68 69 70 69 67 67 67 68 68 69 72 73 72 72 72 71 71 71 71 71 71 71 71 70 70 70 70 70 69 69 69 68 68 68 68 67 67 68 69 70 70 70 69 69 70 70 70 70 70 70 70 70 70 70 70 70 70 70 70 70
38 45 40 42 36 30 28 18 5 2 -0 -1 -7 2 7 -4 -6 8 13 22 22 30 39 46 49 46 46 49 46 49 57 61 61 62 65 68 66 70 70 70 69 68 67 68 68 68 69 71 72 72 72 72 71 71 71 70 70 70 70 70 70 70 70 70 69 69 69 69 69 69 68 68 68 68 67 68 70 70 70 69 69 69 70 71 71 71 71 71 71 70 70 70 70 69 69 70 70
46 46 39 31 25 20 16 17 7 2 4 -8 -9 -2 -4 -2 -3 8 18 22 23 34 39 46 46 51 51 43 50 57 58 59 62 63 64 66 66 69 70 70 70 68 68 67 67 67 68 71 72 72 72 71 71 71 70 70 70 70 70 70 70 69 70 70 69 69 69 69 69 69 68 68 68 68 67 68 69 70 70 70 69 69 69 69 70 71 70 70 70 69 69 69 69 70 70 70 70
41 42 44 34 29 18 16 14 8 4 -0 -7 -11 3 0 0 13 15 17 21 24 37 40 43 46 48 53 57 59 54 56 61 62 62 63 66 67 69 70 70 69 68 67 67 66 67 69 71 72 72 72 71 71 71 71 70 71 70 70 70 70 69 70 70 69 69 69 69 69 69 68 68 68 68 68 68 69 71 71 71 70 69 69 70 71 71 70 70 69 69 69 69 70 71 71 70 70
37 39 39 37 23 31 19 15 10 5 1 3 -9 7 9 7 15 16 18 20 27 38 35 35 40 47 53 59 60 59 61 57 62 63 64 66 68 70 70 71 70 68 67 67 67 68 69 72 72 72 71 71 71 71 71 70 70 70 70 70 69 70 70 69 69 69 69 69 69 69 69 68 68 68 68 68 69 70 71 71 70 70 69 69 69 70 69 69 69 69 70 70 71 71 70 69 69
32 35 31 27 20 20 14 9 1 2 -0 2 -5 -4 12 10 14 18 18 18 28 35 35 36 39 35 52 59 60 62 63 64 63 62 64 67 69 69 70 70 70 69 68 67 67 68 69 72 72 71 71 71 71 70 71 70 70 70 70 70 69 70 70 69 69 69 69 69 70 70 69 68 68 68 68 68 69 70 70 70 69 69 70 70 69 69 69 69 69 69 70 71 70 70 69 69 69
40 36 28 18 14 18 10 10 11 11 9 7 9 7 10 13 16 17 17 16 17 23 37 46 41 35 57 59 55 63 64 64 63 65 66 68 69 70 71 70 69 68 67 68 68 69 72 72 72 71 71 71 70 70 70 70 70 69 70 70 70 70 69 69 69 69 70 69 69 70 68 69 69 69 69 70 70 70 70 69 69 69 70 70 69 69 69 68 69 70 70 70 70 70 69 69 69
30 27 30 19 16 18 8 11 13 13 13 10 8 16 33 17 17 17 16 17 17 16 16 38 42 39 48 54 60 62 65 66 66 67 67 68 70 70 71 70 68 68 67 67 69 71 69 72 72 72 71 71 70 70 70 70 70 69 70 70 69 70 70 70 69 69 70 70 70 70 69 70 71 70 70 70 70 70 70 69 69 69 69 69 69 69 68 69 69 70 70 70 70 70 70 69 69
25 22 22 12 9 11 9 1 8 5 4 6 5 8 11 13 15 17 17 14 16 19 25 39 48 44 49 56 59 61 64 67 67 67 69 70 69 70 71 71 69 67 67 67 69 68 69 72 72 71 71 71 70 70 70 70 70 70 70 70 70 71 70 70 70 70 70 70 70 71 71 70 70 70 70 70 70 70 69 69 69 69 69 69 70 69 68 69 70 70 70 70 70 70 70 69 69
22 13 25 15 13 6 2 3 3 3 -2 1 4 9 15 14 13 14 14 15 19 16 38 48 47 49 52 58 60 65 68 67 66 68 69 69 70 70 69 70 69 68 66 68 69 69 69 69 72 71 71 71 71 71 71 71 71 71 71 71 71 70 70 71 71 70 70 70 71 71 71 70 70 71 71 71 70 70 69 69 69 69 69 69 69 69 68 69 70 70 70 70 70 70 69 69 69
20 16 12 3 5 5 -1 1 -0 -6 -5 -1 6 13 13 15 13 13 13 14 17 23 43 45 44 49 53 56 60 65 68 67 67 68 69 70 69 70 68 68 68 67 68 69 69 69 68 69 69 71 71 71 71 71 71 71 71 71 71 71 71 71 71 71 71 70 70 70 71 71 71 71 71 71 71 70 70 70 69 69 69 69 69 69 69 69 69 70 70 70 70 70 70 69 69 68 68
17 16 13 4 4 5 4 5 -7 0 -3 9 10 12 14 19 13 14 15 19 19 30 44 53 48 50 53 56 62 66 66 68 69 68 70 69 69 68 69 67 68 69 69 71 69 68 68 67 67 69 70 71 71 71 71 71 71 71 71 71 71 71 71 71 71 71 70 70 71 71 71 72 71 71 71 71 70 70 69 69 68 68 69 68 69 70 70 70 71 71 71 70 70 69 69 68 68
14 20 9 7 11 9 6 -2 -1 -6 2 11 11 14 19 28 33 30 22 33 32 39 50 53 51 53 59 59 62 63 64 68 69 70 69 69 69 68 69 69 70 68 69 70 68 68 68 66 68 68 70 70 70 71 71 71 72 72 72 72 72 71 71 71 71 71 71 70 70 71 72 72 71 71 71 70 70 69 69 69 68 68 68 69 69 69 70 70 70 71 71 70 70 69 69 68 67
15 22 17 10 11 10 4 -1 -10 -6 9 11 13 16 23 44 46 44 44 36 52 56 57 59 54 50 52 55 58 61 64 68 69 69 69 69 70 69 70 69 70 69 69 68 67 67 66 67 67 69 69 68 70 70 70 72 72 72 72 72 71 71 71 71 71 71 70 70 70 71 72 72 71 71 71 70 70 69 69 69 69 69 69 69 69 69 70 70 71 71 71 70 69 69 68 68 67
20 21 13 15 8 7 4 -1 8 9 9 11 14 17 22 37 44 49 47 53 54 58 57 51 58 54 54 54 56 61 65 68 69 69 69 69 70 70 70 69 69 69 69 68 68 67 68 66 68 67 67 68 70 69 70 70 72 72 72 72 71 71 71 71 71 71 70 70 70 71 71 72 71 71 70 69 70 70 69 67 69 69 69 69 69 69 70 70 71 71 71 70 69 69 68 68 67
27 19 18 14 9 9 6 -2 4 8 9 12 14 15 13 33 47 52 56 55 52 56 59 61 57 60 59 57 60 64 66 68 69 69 69 69 69 69 69 69 68 68 69 67 68 69 69 68 68 67 67 68 69 70 70 70 69 71 71 72 71 71 71 71 71 70 70 70 70 70 71 70 70 70 70 68 69 68 69 69 69 68 69 69 69 70 70 70 70 70 71 70 69 69 68 67 67
22 17 16 13 7 7 2 2 10 11 10 13 13 13 13 29 46 50 54 53 55 56 57 59 60 61 61 61 64 65 66 68 69 68 68 68 68 67 68 67 67 67 68 68 68 70 69 69 67 67 68 67 69 69 71 71 71 70 68 71 71 71 71 71 71 69 68 69 70 70 70 69 69 68 69 68 68 69 68 69 69 69 69 69 70 70 70 70 69 70 70 69 69 68 67 64 67
18 16 15 11 10 4 11 11 15 14 14 15 13 12 12 19 31 41 41 46 49 49 54 57 60 62 62 63 64 64 67 68 69 69 67 67 66 66 65 66 67 67 66 68 67 68 70 68 70 70 68 69 69 69 69 69 70 71 70 68 69 69 70 70 70 69 67 67 68 68 69 70 69 69 68 67 68 68 69 69 69 69 69 69 70 70 70 69 69 69 70 70 68 68 65 63 63
18 17 18 13 9 11 12 13 15 17 17 15 13 11 11 10 17 26 38 39 42 42 50 53 56 61 62 63 63 64 67 67 68 68 67 65 65 65 65 66 66 66 66 68 68 69 69 70 69 69 70 71 71 69 69 69 70 70 69 70 69 68 70 70 70 69 69 68 68 68 68 71 71 71 68 69 69 69 69 69 69 68 68 69 69 69 69 69 69 69 69 69 68 65 64 62 62
17 19 15 8 10 12 7 11 14 17 17 16 14 12 10 11 17 23 34 32 35 37 42 43 51 61 62 62 63 64 66 66 66 66 66 66 65 66 66 67 65 65 67 68 68 67 68 69 68 68 71 71 69 71 69 72 70 69 68 68 68 67 68 69 71 71 70 70 69 68 66 67 70 70 69 67 66 67 67 67 68 66 67 67 68 66 66 67 69 67 68 65 64 64 62 63 63
25 18 10 11 17 9 11 14 17 18 18 16 14 11 9 12 22 28 37 22 27 29 37 45 56 63 61 63 63 64 65 65 65 66 66 66 66 66 67 66 67 68 67 67 67 68 66 67 67 69 70 70 68 69 70 70 69 68 68 68 68 67 67 69 69 70 70 71 70 68 66 67 68 69 69 68 66 66 66 66 64 65 65 65 66 63 63 65 65 64 64 63 64 64 64 63 63
18 20 15 19 17 9 17 17 18 20 17 15 13 11 11 10 10 18 35 21 31 39 39 47 55 63 62 63 62 64 64 64 64 65 65 65 65 67 67 66 66 66 67 66 69 68 68 69 69 70 69 69 69 69 69 68 69 68 68 67 67 67 67 69 69 69 70 70 71 69 67 65 66 69 69 68 68 66 65 64 64 65 65 63 64 61 63 64 64 64 64 65 64 63 61 62 62
13 8 19 16 15 16 16 16 18 18 17 16 13 11 9 9 9 21 30 26 48 49 48 52 60 63 62 62 63 63 63 63 65 65 66 66 66 67 68 66 66 67 66 67 67 68 69 69 69 70 69 69 70 69 69 68 70 68 68 68 67 66 67 68 69 69 70 69 70 69 68 66 65 69 69 69 68 65 64 65 65 63 63 62 63 62 61 61 62 64 65 64 62 62 60 61 60
13 8 16 15 15 16 17 16 15 16 16 15 13 9 8 9 8 9 23 37 50 52 55 57 61 62 61 61 62 63 63 65 65 66 66 66 67 67 67 67 68 68 67 68 68 68 69 69 70 70 70 69 69 69 69 68 68 68 68 67 67 68 68 68 67 70 71 69 70 70 68 67 64 65 68 69 66 65 65 65 63 63 64 62 63 61 61 63 63 63 64 63 64 63 63 62 60
13 10 11 13 14 15 15 15 14 16 15 13 11 8 8 8 9 10 30 50 55 58 58 59 63 61 61 61 63 64 64 65 66 66 66 66 67 66 67 67 67 67 67 68 68 68 69 69 68 69 71 69 69 70 69 68 68 68 67 68 68 69 68 69 69 71 71 68 68 69 67 67 65 63 64 65 63 64 65 66 65 64 63 64 63 62 61 62 62 63 63 63 60 64 62 62 61
16 11 12 14 14 14 16 15 15 15 13 13 10 7 7 8 8 10 36 48 57 58 58 62 62 61 60 61 63 64 65 65 66 66 66 66 65 66 66 66 67 67 67 67 67 68 69 70 68 69 70 70 70 70 68 68 68 68 68 68 69 68 67 68 68 68 67 69 69 71 68 66 66 65 65 65 65 65 66 65 64 64 63 63 63 62 63 62 63 63 63 63 63 63 63 63 61
18 16 13 14 14 16 17 15 15 14 12 11 9 6 7 8 7 16 37 55 58 56 57 59 59 59 60 61 63 62 65 65 65 66 65 65 64 64 66 66 67 67 66 66 67 69 69 71 70 69 69 71 69 68 69 68 68 69 69 68 69 69 70 68 67 68 67 69 70 70 69 66 67 67 67 67 66 65 65 65 65 64 64 65 63 63 63 63 62 62 63 65 65 64 63 64 64
17 16 13 13 14 13 14 12 12 14 10 9 8 5 5 6 16 45 53 57 57 54 56 56 57 57 59 61 61 61 63 64 64 64 65 65 65 66 66 67 67 65 65 67 68 68 69 69 69 70 70 70 69 68 68 68 68 67 68 69 70 69 70 68 67 67 68 69 70 71 69 68 67 66 68 67 66 64 64 66 67 66 64 65 64 64 64 64 63 62 64 64 64 64 64 65 63
14 16 11 11 10 6 8 8 11 11 9 8 6 6 6 7 17 30 52 55 57 53 51 55 56 57 58 61 59 62 63 64 64 65 64 65 65 66 66 66 66 66 65 65 67 67 69 70 69 69 69 68 68 67 67 67 68 68 70 69 70 69 69 68 67 69 70 69 69 70 69 68 67 66 67 67 66 67 67 67 66 66 65 65 65 65 63 62 62 63 62 63 63 63 63 64 62
10 10 8 9 3 1 4 7 10 9 9 7 6 10 6 14 28 29 46 55 53 48 49 54 57 57 58 60 59 61 63 64 64 65 66 66 66 66 65 65 66 66 65 66 66 66 68 68 69 68 68 67 67 68 68 67 69 69 68 68 70 70 69 68 68 69 69 68 68 68 69 69 68 66 66 68 67 68 67 67 67 67 67 65 64 64 63 63 63 63 61 61 63 62 62 63 62
6 5 5 3 7 1 7 8 9 7 6 6 6 11 13 27 35 35 40 53 52 47 51 54 58 58 58 57 59 60 62 64 65 66 66 66 67 66 65 66 66 66 66 66 66 67 66 68 69 67 68 67 68 68 68 68 68 69 70 69 69 70 68 67 68 69 68 69 68 68 68 68 68 66 66 67 69 68 68 67 66 67 67 65 64 64 64 63 63 63 63 63 62 60 61 62 62
10 8 11 5 5 3 5 7 8 7 5 6 6 4 10 29 39 43 43 51 52 48 51 56 58 58 59 58 60 60 62 63 63 64 65 66 66 66 66 65 65 65 66 66 66 66 66 67 68 67 67 67 67 68 68 68 68 69 69 68 68 70 69 68 67 69 69 68 68 67 69 68 67 66 66 67 70 69 68 67 67 68 67 64 64 64 62 63 65 64 65 64 63 61 60 61 61
9 6 10 6 0 4 2 6 6 7 5 4 6 6 30 35 40 44 47 49 49 46 53 55 56 56 57 56 58 59 61 62 61 62 64 65 64 65 65 64 66 66 66 67 67 66 66 66 67 67 67 67 67 67 68 68 68 68 69 68 69 69 69 68 67 68 68 69 69 68 69 68 68 66 66 66 69 70 69 69 70 68 67 67 65 64 62 63 66 66 65 65 64 64 60 61 62
12 9 15 8 1 5 2 5 5 5 5 5 7 20 31 36 40 43 46 49 46 47 51 54 55 56 56 55 56 58 58 60 62 62 63 65 65 65 65 65 66 66 66 66 66 67 67 67 67 67 67 68 67 68 68 68 68 68 68 69 70 69 68 69 68 69 69 70 70 70 68 68 67 67 66 66 67 68 68 68 68 68 67 67 67 64 63 64 67 66 66 64 64 64 61 63 63
9 5 10 7 8 6 2 5 7 5 5 4 6 17 33 39 41 44 47 49 50 52 54 54 55 55 56 56 57 58 58 59 61 63 63 64 64 64 65 64 65 66 66 66 66 67 66 66 67 67 67 67 67 68 67 66 66 66 66 68 68 67 68 67 68 70 69 69 68 68 67 67 67 67 66 65 67 67 67 67 68 67 67 67 68 66 64 64 67 67 67 63 64 62 64 65 65
10 5 4 2 0 4 4 9 10 8 4 10 7 29 39 41 44 46 48 49 50 52 54 52 52 53 53 55 58 59 59 59 61 62 63 63 63 65 66 65 65 65 65 66 66 66 67 66 66 66 67 67 66 65 65 65 64 65 66 66 66 67 66 67 67 69 68 68 67 67 66 68 68 67 66 65 67 67 67 67 67 66 67 68 68 67 68 66 67 66 65 65 64 65 65 65 65
7 3 2 0 0 3 6 10 12 13 23 27 28 33 40 43 45 46 47 48 48 50 52 53 52 51 53 57 57 59 61 61 60 62 63 63 63 65 65 65 65 64 64 65 65 65 66 67 66 66 67 67 67 67 66 66 66 66 65 65 67 65 66 67 66 66 67 67 67 68 68 67 67 67 67 67 67 67 67 66 65 67 68 68 69 69 68 68 68 66 65 65 65 64 64 64 64
8 5 3 3 3 5 10 11 14 12 18 22 26 32 39 43 45 46 47 47 50 50 51 52 52 51 52 57 58 59 61 61 61 62 63 64 64 64 64 64 64 65 64 65 65 65 65 66 66 66 67 67 67 68 67 67 68 67 67 67 66 66 67 67 66 67 68 68 69 68 67 68 67 67 67 67 67 67 66 67 67 67 68 67 68 69 68 67 66 67 66 64 63 63 63 64 65
11 7 6 4 2 6 8 17 19 19 20 23 27 33 41 44 45 46 47 47 49 49 49 51 53 54 55 56 57 58 58 60 61 62 62 63 64 64 64 63 64 64 64 64 64 64 65 65 66 66 66 66 66 67 67 67 66 65 66 66 68 69 68 68 69 69 69 69 68 69 66 67 67 67 65 66 66 66 67 67 67 68 67 68 67 66 67 67 66 67 66 65 64 62 61 62 64
15 9 4 2 3 4 7 14 18 23 28 29 29 33 36 41 41 43 46 47 46 47 48 51 54 54 55 56 57 58 58 59 59 61 61 61 61 62 62 63 63 63 63 63 63 63 63 64 65 65 65 66 66 67 67 68 67 66 66 65 66 66 67 66 67 67 67 66 66 66 67 67 67 67 67 66 65 66 67 67 67 67 67 67 66 66 66 65 65 66 65 65 64 62 61 63 64
12 13 5 2 5 6 13 19 21 25 28 29 23 18 30 41 42 43 44 45 45 46 46 49 52 54 54 56 57 57 58 58 59 59 60 61 61 61 62 61 62 62 62 63 64 64 63 64 64 65 65 66 65 66 66 66 66 65 66 65 64 64 64 65 64 65 66 65 64 67 67 67 66 66 67 66 66 66 66 67 67 66 67 66 67 67 66 66 65 65 65 64 66 65 63 62 62
15 12 10 6 4 9 14 18 16 19 20 26 31 19 24 36 40 43 44 43 44 46 47 50 52 53 53 54 56 56 57 58 60 60 59 60 60 60 60 61 61 61 62 63 63 63 63 63 63 63 64 64 65 65 66 66 66 66 66 65 65 64 63 64 66 67 67 67 66 66 67 67 67 67 67 66 67 66 66 66 66 67 66 67 66 66 66 67 66 66 67 67 65 63 64 62 62
10 11 11 9 7 9 12 14 16 17 18 26 26 18 22 32 39 43 43 43 43 44 46 49 50 53 54 55 56 57 57 58 58 58 58 59 59 59 59 60 60 60 61 62 63 64 63 63 63 63 64 64 65 65 65 65 66 67 66 65 64 64 64 65 66 65 66 67 66 66 66 67 66 67 67 66 65 65 65 65 65 66 66 65 65 68 67 66 66 66 65 64 63 63 63 62 63
10 11 9 9 7 8 9 10 13 17 22 18 21 19 22 25 39 42 42 41 43 43 46 49 51 53 54 55 56 55 56 56 56 56 57 58 58 59 59 60 61 61 61 61 62 62 63 64 64 64 64 64 65 65 65 65 65 65 65 64 63 65 66 66 66 66 66 66 65 65 65 65 66 66 66 67 66 65 66 66 65 65 65 65 64 64 67 64 65 64 65 65 66 65 64 64 63
13 12 11 9 8 8 9 10 10 17 17 15 14 18 16 30 37 39 40 40 42 44 47 50 51 52 53 53 54 54 54 55 56 56 56 57 58 58 60 60 60 61 61 61 62 62 63 63 63 63 63 64 65 65 65 65 64 65 64 64 64 65 66 66 67 66 65 65 64 64 65 65 65 66 67 66 65 65 65 65 65 64 65 65 64 64 65 65 66 65 65 65 65 64 64 64 63
13 12 11 11 9 11 14 14 15 18 13 14 11 18 18 22 33 38 39 41 43 46 48 50 50 51 51 52 52 52 52 53 54 54 54 55 56 57 57 57 58 59 59 60 61 61 62 62 62 62 63 63 64 64 65 65 64 64 64 64 64 64 65 65 64 64 65 63 64 64 64 64 65 65 66 66 67 66 65 65 65 65 66 65 64 64 66 64 65 66 65 65 64 65 64 64 64
13 11 10 8 10 13 18 20 18 14 12 12 16 14 23 18 33 41 45 44 44 46 46 48 50 50 50 51 51 51 51 52 52 52 53 54 54 55 56 56 56 57 57 57 58 59 59 59 60 62 62 63 63 63 64 64 64 64 64 64 64 65 65 64 64 63 62 64 64 64 65 65 65 65 65 65 65 66 66 66 66 66 65 68 67 65 65 64 65 65 65 64 64 65 65 64 64
11 10 10 10 9 11 10 12 15 11 12 20 18 20 21 24 36 41 44 45 48 48 49 49 49 49 50 50 50 50 50 50 51 51 51 52 53 53 54 55 55 55 56 56 57 58 58 58 59 59 60 61 61 63 64 64 64 63 63 63 65 65 65 65 64 63 64 63 64 64 64 64 65 64 64 64 66 64 65 66 66 66 66 65 65 65 65 64 65 65 64 64 66 64 64 64 63
11 9 9 9 8 9 11 8 15 13 21 21 20 22 19 38 39 44 46 48 49 49 49 49 49 49 49 49 49 49 49 49 50 50 51 51 51 52 53 53 53 54 55 55 56 56 57 57 57 58 58 59 60 61 61 62 63 64 64 64 64 64 64 65 64 64 64 64 64 64 64 64 64 64 64 65 65 65 66 66 66 66 66 65 65 64 65 65 65 63 64 64 64 64 64 65 65
11 9 6 11 10 11 12 8 12 13 14 24 28 22 32 32 39 47 49 49 49 48 48 49 49 49 49 48 50 48 49 49 49 49 49 50 51 51 52 52 53 53 54 54 55 55 56 56 56 57 57 58 58 59 60 61 61 62 63 63 64 64 63 64 64 64 64 64 64 65 65 65 64 64 65 65 65 65 65 65 65 66 66 65 65 65 64 65 66 63 62 66 64 64 64 64 64
10 8 6 9 11 12 10 16 13 16 21 20 30 30 38 36 47 49 49 48 47 48 48 48 48 48 48 47 47 47 47 48 48 49 49 50 50 51 51 52 52 53 53 54 54 54 55 55 55 56 56 57 57 58 58 59 60 61 62 62 63 63 63 63 63 64 64 66 66 64 64 65 65 66 65 65 66 64 65 66 66 66 65 65 65 64 65 64 66 65 65 64 63 63 64 65 64
12 7 8 6 8 7 19 24 32 26 18 23 34 36 41 45 47 47 48 47 47 47 47 47 46 47 47 47 47 47 47 47 48 48 48 49 50 50 50 51 51 52 53 53 53 53 54 54 54 54 55 56 56 57 58 59 60 61 61 62 62 63 63 64 64 65 65 65 64 65 64 64 64 64 64 64 64 64 66 65 64 65 65 66 64 65 65 64 66 66 65 65 63 64 64 63 63
10 12 9 15 14 13 19 11 18 16 12 27 32 32 37 38 35 46 46 45 45 45 46 46 46 47 46 46 46 46 47 48 47 47 48 47 48 49 49 49 50 51 52 52 52 53 53 53 54 54 54 55 55 56 57 58 58 59 60 61 62 63 62 63 64 64 64 64 65 65 65 64 63 64 64 64 64 65 65 64 65 65 64 65 66 66 64 65 65 67 64 64 63 64 63 63 63
9 7 5 10 14 15 18 15 14 13 15 26 29 32 34 30 37 42 44 44 44 44 45 46 45 45 45 45 45 46 47 46 46 46 47 47 46 47 48 48 48 50 51 52 51 52 53 53 53 53 54 54 54 55 56 57 58 58 59 59 60 61 62 63 63 63 63 62 62 63 62 62 64 64 64 64 64 64 64 64 65 64 64 65 65 65 66 66 65 64 64 64 63 63 62 62 62
14 4 9 7 15 16 18 16 16 13 14 24 25 28 29 32 40 43 44 44 44 43 44 44 44 45 45 45 45 45 45 45 45 45 46 46 46 47 47 48 48 49 50 51 52 52 52 52 52 52 53 53 53 54 55 55 56 57 58 59 60 60 61 62 63 63 63 62 62 62 61 63 63 64 64 64 63 63 64 65 64 64 63 64 65 66 65 64 64 65 64 64 63 63 62 61 62
12 9 10 9 21 15 11 21 11 10 16 18 23 22 27 36 40 43 45 45 45 44 44 45 44 44 44 44 45 45 45 45 45 45 44 45 46 47 47 48 48 48 49 50 51 51 51 51 51 51 52 52 53 53 53 54 55 56 57 58 59 61 61 62 63 63 62 63 63 62 62 63 63 64 64 64 63 63 63 64 64 63 64 65 65 65 64 64 63 65 64 64 62 62 61 60 61
10 11 10 7 12 15 12 15 17 17 14 17 21 21 31 43 44 42 46 46 45 44 45 45 44 44 44 44 44 45 45 45 45 45 45 45 46 46 46 46 46 47 47 49 49 50 50 50 50 50 51 51 52 52 52 53 54 55 56 57 59 60 61 61 62 63 61 61 62 63 63 63 63 63 63 63 62 63 62 63 63 62 63 63 65 63 66 64 63 64 62 62 63 62 61 60 62